TimeCDT,TemperatureF,Dew PointF,Humidity,Sea Level PressureIn,VisibilityMPH,Wind Direction,Wind SpeedMPH,Gust SpeedMPH,PrecipitationIn,Events,Conditions,WindDirDegrees,DateUTC
12:40 AM,53.6,53.6,100,29.70,10.0,North,-9999.0,-,N/A,,Mostly Cloudy,0,2013-06-01 05:40:00
12:53 AM,53.1,52.0,96,29.70,10.0,North,-9999.0,-,N/A,,Mostly Cloudy,0,2013-06-01 05:53:00
1:21 AM,55.4,53.6,94,29.73,10.0,North,-9999.0,-,N/A,Thunderstorm,Overcast,0,2013-06-01 06:21:00
1:31 AM,53.6,53.6,100,29.73,4.0,North,-9999.0,-,0.05,Rain-Thunderstorm,Rain,0,2013-06-01 06:31:00
1:53 AM,54.0,52.0,93,29.69,10.0,North,-9999.0,-,0.06,,Mostly Cloudy,0,2013-06-01 06:53:00
2:53 AM,51.1,50.0,96,29.66,10.0,North,-9999.0,-,N/A,,Clear,0,2013-06-01 07:53:00
3:13 AM,50.0,50.0,100,29.65,1.5,North,-9999.0,-,N/A,,Clear,0,2013-06-01 08:13:00
3:31 AM,48.2,46.4,93,29.64,0.5,North,-9999.0,-,N/A,Fog,Fog,0,2013-06-01 08:31:00
3:34 AM,48.2,48.2,100,29.64,0.2,North,-9999.0,-,N/A,Fog,Fog,0,2013-06-01 08:34:00
3:43 AM,48.2,48.2,100,29.64,0.8,North,-9999.0,-,N/A,,Mist,0,2013-06-01 08:43:00
3:45 AM,50.0,48.2,94,29.64,1.2,North,-9999.0,-,N/A,,Partly Cloudy,0,2013-06-01 08:45:00
3:48 AM,50.0,48.2,94,29.64,4.0,North,-9999.0,-,N/A,,Partly Cloudy,0,2013-06-01 08:48:00
3:53 AM,48.9,48.0,97,29.63,5.0,North,-9999.0,-,N/A,,Partly Cloudy,0,2013-06-01 08:53:00
4:53 AM,50.0,50.0,100,29.62,10.0,North,-9999.0,-,N/A,,Clear,0,2013-06-01 09:53:00
5:53 AM,52.0,51.1,97,29.65,10.0,North,-9999.0,-,N/A,,Mostly Cloudy,0,2013-06-01 10:53:00
6:53 AM,54.0,52.0,93,29.66,10.0,North,-9999.0,-,N/A,,Overcast,0,2013-06-01 11:53:00
7:53 AM,54.0,53.1,97,29.67,10.0,North,-9999.0,-,N/A,,Overcast,0,2013-06-01 12:53:00
8:53 AM,55.0,53.1,93,29.68,10.0,North,-9999.0,-,N/A,,Overcast,0,2013-06-01 13:53:00
9:53 AM,57.9,53.1,84,29.67,10.0,North,-9999.0,-,N/A,,Overcast,0,2013-06-01 14:53:00
10:53 AM,61.0,55.0,81,29.69,10.0,North,-9999.0,-,N/A,,Overcast,0,2013-06-01 15:53:00
11:00 AM,60.8,55.4,82,29.69,6.0,North,-9999.0,-,0.01,Rain,Light Rain,0,2013-06-01 16:00:00
11:05 AM,59.0,55.4,88,29.70,2.5,North,-9999.0,-,0.04,Rain,Heavy Rain,0,2013-06-01 16:05:00
11:26 AM,59.0,55.4,88,29.68,10.0,North,-9999.0,-,0.07,Rain,Light Rain,0,2013-06-01 16:26:00
11:53 AM,59.0,55.0,87,29.68,10.0,North,-9999.0,-,0.07,,Overcast,0,2013-06-01 16:53:00
12:53 PM,61.0,54.0,78,29.66,10.0,North,-9999.0,-,N/A,,Overcast,0,2013-06-01 17:53:00
1:53 PM,64.0,55.9,75,29.65,10.0,Calm,Calm,-,N/A,,Overcast,0,2013-06-01 18:53:00
2:53 PM,68.0,54.0,61,29.64,10.0,West,10.4,-,N/A,,Mostly Cloudy,280,2013-06-01 19:53:00
3:53 PM,66.0,55.0,68,29.64,10.0,NW,10.4,18.4,N/A,,Overcast,310,2013-06-01 20:53:00
4:53 PM,63.0,53.1,70,29.66,10.0,West,4.6,-,0.00,,Overcast,270,2013-06-01 21:53:00
5:53 PM,63.0,53.1,70,29.66,10.0,NNW,5.8,-,N/A,,Overcast,330,2013-06-01 22:53:00
6:53 PM,60.1,54.0,80,29.69,10.0,North,11.5,20.7,N/A,,Overcast,10,2013-06-01 23:53:00
7:04 PM,57.2,53.6,88,29.70,2.5,North,12.7,19.6,0.03,Rain,Heavy Rain,10,2013-06-02 00:04:00
7:06 PM,55.4,53.6,94,29.70,1.8,North,10.4,19.6,0.04,Rain,Heavy Rain,10,2013-06-02 00:06:00
7:16 PM,55.4,53.6,94,29.70,1.8,North,6.9,-,0.08,Rain,Rain,350,2013-06-02 00:16:00
7:20 PM,55.4,53.6,94,29.70,2.0,North,9.2,-,0.09,Rain,Rain,350,2013-06-02 00:20:00
7:30 PM,53.6,51.8,94,29.71,4.0,NNW,11.5,19.6,0.11,Rain,Rain,340,2013-06-02 00:30:00
7:53 PM,51.1,48.9,92,29.73,10.0,North,9.2,19.6,0.12,,Overcast,360,2013-06-02 00:53:00
8:53 PM,45.0,44.1,97,29.76,10.0,North,10.4,17.3,0.01,Rain,Light Rain,350,2013-06-02 01:53:00
9:53 PM,43.0,41.0,93,29.79,10.0,North,9.2,16.1,0.00,,Overcast,350,2013-06-02 02:53:00
10:53 PM,42.1,39.9,92,29.81,10.0,North,6.9,17.3,N/A,,Overcast,360,2013-06-02 03:53:00
11:34 PM,42.8,39.2,87,29.81,10.0,North,8.1,21.9,N/A,,Overcast,360,2013-06-02 04:34:00
11:49 PM,41.0,39.2,93,29.81,10.0,North,8.1,-,N/A,,Overcast,350,2013-06-02 04:49:00
11:53 PM,41.0,39.9,96,29.83,10.0,Variable,4.6,-,N/A,,Overcast,0,2013-06-02 04:53:00